2023/01/31 00:00:00,96.7,-2.6
2023/01/31 00:10:00,97.0,-3.2
2023/01/31 00:20:00,96.9,-3.5
2023/01/31 00:30:00,96.7,-3.4
2023/01/31 00:40:00,96.5,-3.7
2023/01/31 00:50:00,96.4,-3.1
2023/01/31 01:00:00,96.2,-3.3
2023/01/31 01:10:00,96.1,-3.3
2023/01/31 01:20:00,95.9,-3.3
2023/01/31 01:30:00,95.8,-3.2
2023/01/31 01:40:00,96.0,-3.3
2023/01/31 01:50:00,96.2,-3.6
2023/01/31 02:00:00,96.0,-3.3
2023/01/31 02:10:00,95.5,-3.4
2023/01/31 02:20:00,95.2,-3.2
2023/01/31 02:30:00,95.0,-3.3
2023/01/31 02:40:00,94.9,-3.3
2023/01/31 02:50:00,94.8,-3.1
2023/01/31 03:00:00,94.7,-3.4
2023/01/31 03:10:00,94.6,-3.3
2023/01/31 03:20:00,94.6,-3.5
2023/01/31 03:30:00,94.5,-3.5
2023/01/31 03:40:00,94.4,-3.5
2023/01/31 03:50:00,94.2,-3.4
2023/01/31 04:00:00,94.2,-3.5
2023/01/31 04:10:00,94.2,-3.3
2023/01/31 04:20:00,94.1,-3.8
2023/01/31 04:30:00,94.0,-3.7
2023/01/31 04:40:00,94.0,-3.4
2023/01/31 04:50:00,93.9,-3.5
2023/01/31 05:00:00,93.8,-3.4
2023/01/31 05:10:00,93.8,-3.4
2023/01/31 05:20:00,93.6,-3.4
2023/01/31 05:30:00,93.8,-3.4
2023/01/31 05:40:00,93.9,-3.4
2023/01/31 05:50:00,93.8,-3.5
2023/01/31 06:00:00,93.7,-3.4
2023/01/31 06:10:00,93.6,-3.6
2023/01/31 06:20:00,93.5,-3.5
2023/01/31 06:30:00,93.4,-3.6
2023/01/31 06:40:00,93.3,-3.5
2023/01/31 06:50:00,93.3,-4.0
2023/01/31 07:00:00,93.2,-3.7
2023/01/31 07:10:00,93.1,-3.5
2023/01/31 07:20:00,93.0,-3.7
2023/01/31 07:30:00,93.0,-3.5
2023/01/31 07:40:00,92.9,-2.8
2023/01/31 07:50:00,92.8,-2.4
2023/01/31 08:00:00,92.9,-2.3
2023/01/31 08:10:00,92.8,-2.4
2023/01/31 08:20:00,92.8,-3.1
2023/01/31 08:30:00,92.8,-4.1
2023/01/31 08:40:00,93.2,-0.5
2023/01/31 08:50:00,93.1, 0.4
2023/01/31 09:00:00,93.7, 0.6
2023/01/31 09:10:00,94.0, 0.1
2023/01/31 09:20:00,94.6, 0.8
2023/01/31 09:30:00,95.3, 1.1
2023/01/31 09:40:00,96.6, 0.7
2023/01/31 09:50:00,178.5, 1.6
2023/01/31 10:00:00,178.3, 2.4
2023/01/31 10:10:00,154.4, 2.8
2023/01/31 10:20:00,178.9, 3.4
2023/01/31 10:30:00,180.6, 4.6
2023/01/31 10:40:00,180.8, 6.0
2023/01/31 10:50:00,179.6, 6.3
2023/01/31 11:00:00,178.9, 6.3
2023/01/31 11:10:00,178.4, 7.9
2023/01/31 11:20:00,153.0, 7.8
2023/01/31 11:30:00,---, 7.4
2023/01/31 11:40:00,152.9, 6.3
2023/01/31 11:50:00,177.5, 5.8
2023/01/31 12:00:00,136.1, 6.4
2023/01/31 12:10:00,92.1, 3.9
2023/01/31 12:20:00,91.2, 3.2
2023/01/31 12:30:00,90.9, 2.9
2023/01/31 12:40:00,89.9, 2.3
2023/01/31 12:50:00,90.6, 2.8
2023/01/31 13:00:00,90.6, 3.9
2023/01/31 13:10:00,89.8, 2.7
2023/01/31 13:20:00,90.6, 5.0
2023/01/31 13:30:00,91.1, 6.1
2023/01/31 13:40:00,91.1, 6.0
2023/01/31 13:50:00,89.8, 6.0
2023/01/31 14:00:00,88.3, 3.6
2023/01/31 14:10:00,88.6, 4.5
2023/01/31 14:20:00,88.1, 3.0
2023/01/31 14:30:00,87.8, 2.4
2023/01/31 14:40:00,87.5, 2.4
2023/01/31 14:50:00,87.8, 2.5
2023/01/31 15:00:00,88.2, 2.9
2023/01/31 15:10:00,88.1, 3.2
2023/01/31 15:20:00,88.1, 5.7
2023/01/31 15:30:00,87.9, 5.9
2023/01/31 15:40:00,87.5, 5.4
2023/01/31 15:50:00,87.4, 5.4
2023/01/31 16:00:00,86.5, 3.7
2023/01/31 16:10:00,86.1, 2.0
2023/01/31 16:20:00,85.9, 1.5
2023/01/31 16:30:00,86.0, 3.0
2023/01/31 16:40:00,85.5, 2.0
2023/01/31 16:50:00,85.3, 0.9
2023/01/31 17:00:00,85.2, 1.3
2023/01/31 17:10:00,85.0, 1.0
2023/01/31 17:20:00,84.9, 0.7
2023/01/31 17:30:00,84.7, 0.8
2023/01/31 17:40:00,84.7, 0.4
2023/01/31 17:50:00,84.6, 0.2
2023/01/31 18:00:00,84.4, 0.0
2023/01/31 18:10:00,84.3, 0.0
2023/01/31 18:20:00,84.4, 0.3
2023/01/31 18:30:00,84.4, 0.0
2023/01/31 18:40:00,84.3,-0.4
2023/01/31 18:50:00,84.4,-0.3
2023/01/31 19:00:00,84.3,-0.2
2023/01/31 19:10:00,84.3,-0.4
2023/01/31 19:20:00,84.2,-0.4
2023/01/31 19:30:00,84.1,-0.3
2023/01/31 19:40:00,84.1,-0.2
2023/01/31 19:50:00,84.0,-0.4
2023/01/31 20:00:00,83.9,-0.1
2023/01/31 20:10:00,83.9,-0.1
2023/01/31 20:20:00,83.7,-0.2
2023/01/31 20:30:00,83.6,-0.3
2023/01/31 20:40:00,83.6, 0.2
2023/01/31 20:50:00,83.6,-0.1
2023/01/31 21:00:00,83.5, 0.0
2023/01/31 21:10:00,83.5,-0.1
2023/01/31 21:20:00,83.4,-0.1
2023/01/31 21:30:00,83.3,-0.3
2023/01/31 21:40:00,83.3, 0.0
2023/01/31 21:50:00,83.2, 0.1
2023/01/31 22:00:00,83.2,-0.4
2023/01/31 22:10:00,83.1, 0.2
2023/01/31 22:20:00,83.1, 0.4
2023/01/31 22:30:00,83.0, 0.4
2023/01/31 22:40:00,83.0, 0.7
2023/01/31 22:50:00,82.9, 0.6
2023/01/31 23:00:00,82.9, 0.4
2023/01/31 23:10:00,82.9, 0.5
2023/01/31 23:20:00,82.9, 0.7
2023/01/31 23:30:00,82.8, 0.7
2023/01/31 23:40:00,82.8, 0.5
2023/01/31 23:50:00,82.8, 0.5
